200 serials | visual certexam suite 1.9 987 registration key

Date Name Success Rate
2009-10-17 06:35:00 Visual CertExam Suite V1.0.251 80%
2009-10-17 06:35:00 Visual CertExam Suite V1.1.284 65%
2009-10-22 23:50:27 Visual CertExam Suite 1.0.251 53%
2011-09-08 13:12:41 Visual CertExam Suite 1.0.251 0%
2011-09-08 13:12:41 Visual CertExam Suite 1.1.284 0%
2011-09-08 13:12:41 Visual CertExam Suite v1.0.251 0%
2011-09-08 13:12:41 Visual CertExam Suite v1.1.284 0%
2009-10-22 23:50:27 Visual Certexam Suit 1.9.925 55%
2011-09-08 11:31:51 Microsoft Visual Basic 5 registration cd key 72%
2011-09-08 12:41:14 Registration Suite 1.0 60%
2011-09-08 12:41:14 Registration Suite v1.0 60%
2012-12-12 19:40:26 Microsoft Visual Basic 2008 Express Edition Registration key 20%
2011-09-08 13:12:41 Visual Developer's Suite Deal CD 0%
2011-09-08 13:12:41 Visual Developers Suite Deal CD 0%
2011-09-08 12:55:03 Total Visual Developer Suite 2000 1.0 0%
2011-09-08 12:55:03 Total Visual Developer Suite 2000 v1.0 0%
2011-09-08 13:12:41 Visual Developers Suite Deal Win95 0%
2011-09-08 13:12:46 Visual Mail Interface Client & Server Suite 1.0 0%
2011-09-08 13:12:46 Visual Mail Interface Client & Server Suite v1.0 0%
2012-12-13 15:42:44 Vegas Movie Studio HD Platinum Visual Effects Suite 62%
2009-10-17 06:21:25 Developer Express NET Windows Forms Components Suite V2.0.0 For Visual Studio 2002.2003 100%
2011-09-08 10:42:09 DAS Registration 1.5.2 69%
2011-09-08 10:42:09 DAS Registration For CW5 0%
2011-09-08 10:42:09 DAS Registration v1.5.2 0%
2009-10-17 06:27:02 Lazarus Registration DLL V1.0 59%
2009-10-22 23:48:48 MemoriesonTV Registration 0%
2009-10-22 23:49:42 Registration Wizard 40%
2011-09-08 10:06:47 AnetHelpTool v4.02 Registration 60%
2011-09-08 10:22:13 ByeLines Registration 60%
2011-09-08 10:57:42 Ftgate Registration 63%
2011-09-08 11:15:16 Infodex v2.10 Registration 0%
2011-09-08 11:25:08 Lazarus Registration DLL v1.0 0%
2011-09-08 11:27:46 Mac Opener v3.0 Registration 57%
2011-09-08 11:32:59 mIRC v4.5+ Registration 60%
2011-09-08 11:32:59 mIRC v4.52 Registration 60%
2011-09-08 12:37:02 Quant v2.0 Registration 0%
2011-09-08 12:41:14 Registration Wizard Pro 5.01 46%
2011-09-08 12:41:14 Registration Wizard Pro v5.01 60%
2011-09-08 13:18:59 WinHacker 95 v2.02 Registration 57%
2012-12-13 05:12:00 Registration Key : 526EFEF086E09600449E667EA2DAE8E2E6D642BC 83%
2009-10-22 23:27:21 Ardamax Keylogger 2.9 Registration 56%
2009-10-22 23:48:49 Microsoft Registration Hacker - 39%
2009-10-22 23:49:57 SoudForge ALL (No Registration Requiered) 0%
2009-10-22 23:50:26 Valve's Registration Armor Key-Gen 60%
2011-09-08 10:21:42 Browserola v1.01 Temp. Registration 0%
2011-09-08 10:56:11 FontLook v3.1 Registration Code 86%
2011-09-08 11:31:51 Microsoft Registration Hacker 0%
2011-09-08 11:31:51 Microsoft Registration Hacker - 0%
2011-09-08 11:31:51 Microsoft Registration HackerMSREGHACK 0%
2011-09-08 11:32:07 Microstation v5.xx.xx & 95 FULL REGISTRATION 48%
2011-09-08 11:42:43 Nic O'Matic 1.6 Registration Code 50%
2011-09-08 11:42:43 Nic O'Matic v1.6 Registration Code 55%
2011-09-08 12:34:57 PolyTrans V1.2E Registration Activator CD-Key 62%
2011-09-08 12:34:57 PolyView v2.9b16 Registration 0%
2011-09-08 12:54:09 Time Registration (German) 1.10 0%
2011-09-08 12:59:30 Super Collapse Registration 100%
2011-09-08 13:23:15 Yipe! II for Windows Registration #154 0%
2012-12-13 08:49:53 Softwarenetz Time Registration v1.10 0%
2012-12-13 08:49:56 Softwarenetz Time Registration v1.14 0%
2012-12-13 15:34:10 Valve's Registration Armor Key-Gen 0%
2009-10-22 23:48:17 Internet Download Manager Registration 50%
2011-09-08 10:25:56 Cheyenne Bitware V4.0 Registration Number 60%
2011-09-08 11:31:51 Microsoft Registration Hacker MSREGHACK 80%
2011-09-08 12:54:14 TimeSlips 10.5 enterprise - with registration code! 0%
2012-12-12 08:07:32 Download avast 5.0.667 Antivirus registration 0%
2012-12-13 05:12:00 Registration Code For PDFZilla Giveaway 0%
2012-12-13 05:12:00 Registration key for x-3gp-video-converter-38540 54%
2012-12-13 13:12:40 Total Image Converter Registration Key 57%
2011-09-08 11:30:16 MediaBlaze 98 v1.01 Win95/NT User: delphic Registration 0%
2012-12-13 05:12:00 Registration code:-826510-16101-266644 71%
2009-10-22 23:49:02 Norton Internet Security 2005 Registration Guide 0%
2011-09-08 09:58:40 Acoustica Mixcraft v1.10 Build 15 Registration Info by MaBi 60%
2011-09-08 13:12:48 Visual Perl for Visual Studio Net 7 1.0 Retail 0%
2011-09-08 13:12:48 Visual Perl for Visual Studio Net 7 v1.0 Retail 0%
2009-10-22 23:50:27 Visual PHP 2.6.3.5556 Php For Visual Studio 25%
2011-09-08 13:12:54 Visual UML Plus Edition for Visual Basic 2.51 0%
2011-09-08 13:12:54 Visual UML Plus Edition for Visual Basic v2.6 0%
2011-09-08 13:12:54 Visual UML Plus Edition for Visual FoxPro 2.6 0%
2011-09-08 13:12:54 Visual UML Visual Basic Edition 2.01 0%
2011-09-08 13:12:54 Visual UML Visual Basic Edition v2.01 0%
2011-09-08 13:12:54 Visual UML Visual Basic Edition v2.02 0%
2011-09-08 13:12:54 Visual UML Visual Basic Edition v2.04 70%
2011-09-08 13:12:54 Visual UML Visual Basic Edition v2.05 0%
2009-10-17 06:33:30 Trolltech Qt Visual Studio Integration V1.0.2 For Visual Studio 2003 0%
2011-09-08 11:41:08 Nero OEM suite OEM suite Latest Version 72%
2011-09-08 10:00:25 Adobe Creative Suite 2 CS2 Suite 2 CS2 0%
2009-10-22 23:45:56 CorelDRAW Graphics Suite X4CorelDRAW Graphics Suite X4 57%
2009-10-22 23:50:27 Visual C++ 4.0 0%
2009-10-22 23:50:27 Visual CHM V4.0 0%
2009-10-22 23:50:27 Visual CHM V4.3 0%
2009-10-22 23:50:27 Visual Fox Pro 07 0%
2009-10-22 23:50:27 Visual Fox Pro 6 0%
2009-10-22 23:50:27 Visual Fox Pro 6.0 0%
2009-10-22 23:50:27 Visual J ++ 6.0 0%
2009-10-22 23:50:27 Visual Kit 5 0%
2009-10-22 23:50:27 Visual MP3 4.2.9 0%
2009-10-22 23:50:27 Visual-MP3 4.3.1 0%
2011-09-08 13:12:41 Visual C++ 4.0 0%
2011-09-08 13:12:41 Visual C++ 4.2 0%
2011-09-08 13:12:41 Visual C++ Pro 5.0 0%
2011-09-08 13:12:41 Visual C++ Pro 6.0 0%
2011-09-08 13:12:41 Visual C++ Pro v5.0 0%
2011-09-08 13:12:41 Visual C++ Pro v6.0 0%
2011-09-08 13:12:41 Visual C++ v4.0 0%
2011-09-08 13:12:41 Visual C++ v4.2 0%
2011-09-08 13:12:41 Visual CHM v4.0 0%
2011-09-08 13:12:41 Visual CHM v4.3 0%
2011-09-08 13:12:43 Visual Fox Pro 0%
2011-09-08 13:12:43 Visual FOX Pro 7.0 0%
2011-09-08 13:12:43 Visual Fox pro 9 0%
2011-09-08 13:12:43 Visual Fox Pro v6.0 0%
2011-09-08 13:12:43 Visual Fox Pro v7.0 0%
2011-09-08 13:12:43 Visual Help Pro 4.0.5 0%
2011-09-08 13:12:43 Visual Help Pro 4.0.6 0%
2011-09-08 13:12:43 Visual Help Pro v1.06 0%
2011-09-08 13:12:43 Visual Help Pro v3.1e Win 2/2 Jun 0%
2011-09-08 13:12:43 Visual Help Pro v4.0.5 0%
2011-09-08 13:12:43 Visual Help Pro v4.0.6 0%
2011-09-08 13:12:43 Visual J Pro v6.0 0%
2011-09-08 13:12:43 Visual J++ 6.0 0%
2011-09-08 13:12:43 Visual J++ Pro 6.0 0%
2011-09-08 13:12:43 Visual J++ v6.0 0%
2011-09-08 13:12:44 Visual KAP 3.0a 0%
2011-09-08 13:12:44 Visual KAP v3.0a 0%
2011-09-08 13:12:44 Visual Key 1.0 0%
2011-09-08 13:12:45 Visual Key 1.0.33 0%
2011-09-08 13:12:45 Visual Key v1.0 0%
2011-09-08 13:12:45 Visual Key v1.0.33 0%
2011-09-08 13:12:45 VISUAL KIT 5 0%
2011-09-08 13:12:45 VISUAL KIT 5 V6.0 0%
2011-09-08 13:12:45 VISUAL KIT 5 V7.0 0%
2011-09-08 13:12:45 Visual Lab 2.0 0%
2011-09-08 13:12:45 Visual Lab v2.0 0%
2011-09-08 13:12:46 Visual MP3 0%
2011-09-08 13:12:46 Visual MP3 3.0 0%
2011-09-08 13:12:46 Visual MP3 3.5 0%
2011-09-08 13:12:46 Visual MP3 4.0 0%
2011-09-08 13:12:46 Visual MP3 4.1 0%
2011-09-08 13:12:46 Visual MP3 4.2 0%
2011-09-08 13:12:46 Visual MP3 4.2.2 0%
2011-09-08 13:12:46 Visual Mp3 4.2.9 0%
2011-09-08 13:12:48 Visual MP3 v3.0 0%
2011-09-08 13:12:48 Visual Mp3 v3.6 0%
2011-09-08 13:12:48 Visual MP3 v4.0 0%
2011-09-08 13:12:48 Visual MP3 v4.1 0%
2011-09-08 13:12:48 Visual Pro C 0%
2011-09-08 13:12:48 Visual Pro C for OS/2 0%
2011-09-08 13:12:48 Visual Pro C OS/2 0%
2011-09-08 13:12:48 Visual Pro C++ 0%
2011-09-08 13:12:48 Visual Pro C++ for OS/2 0%
2011-09-08 13:12:48 Visual Pro C++ OS/2 0%
2011-09-08 13:12:48 Visual Pro C/C 0%
2011-09-08 13:12:48 Visual Pro C/C++ 0%
2011-09-08 13:12:48 Visual PRO C/C++ for OS/2 0%
2011-09-08 13:12:53 Visual UML 1.12 67%
2011-09-08 13:12:53 Visual UML 2.8.3 80%
2011-09-08 13:12:54 Visual UML Pro 1.1 0%
2011-09-08 13:12:54 Visual UML Pro v1.1 0%
2011-09-08 13:12:54 Visual UML v1.12 0%
2011-09-08 13:12:54 Visual UML v1.12a.106 0%
2011-09-08 13:12:54 Visual UML v2.8.3 0%
2011-09-08 13:12:54 Visual Web v1.03 0%
2011-09-08 13:12:54 Visual Web v1.03 Win First 0%
2011-09-08 13:12:54 Visual-MP3 4.3.1 0%
2011-09-08 13:12:54 Visual-MP3 v4.3.1 0%
2011-09-08 13:12:54 Visual-MP3 v4.3.1 by SnD 0%
2011-09-08 13:17:13 WHI Visual Help 2.2.0.2 0%
2011-09-08 13:17:13 WHI Visual Help v2.2.0.2 0%
2012-12-13 16:18:28 Visual C++ 0%
2009-10-17 06:31:37 RKS Visual Labels V3.31-CFF 0%
2009-10-17 06:35:00 Visual CD Ripper V2.10 0%
2009-10-17 06:35:00 Visual Imagemapper V3.1 0%
2009-10-17 06:35:00 Visual Labels V3.2m 0%
2009-10-17 06:35:00 Visual Labels V3.30 0%
2009-10-17 06:35:00 Visual Labels V3.31 0%
2009-10-17 06:35:00 Visual Labels V4.15 0%
2009-10-17 06:35:00 Visual Money V2.3.1 0%
2009-10-17 06:35:00 Visual Money V2.4.1 0%
2009-10-17 06:35:00 Visual Money V2.4.2 0%
2009-10-17 06:35:00 Visual Money V2.4.2 0%
2009-10-17 06:35:00 Visual Photo V1.00 Only 0%
2009-10-17 06:35:00 Visual Proktolog V6.9 0%
2009-10-17 06:35:00 Visual Prolog V7.1 81%
2009-10-17 06:35:00 Visual Watermark V2.9.9-DOA 0%
2009-10-17 06:35:00 Visual Web Task V4.0 0%
2009-10-17 06:35:00 Visual Webcreator V1.0.650 0%
2009-10-22 23:48:49 Microsoft Visual C++ 6 0%
2009-10-22 23:48:49 Microsoft Visual C++ V.5.0 0%
2009-10-22 23:48:49 Microsoft Visual J++ 0%
2009-10-22 23:49:44 RKS Visual Labels V3.31 0%
2009-10-22 23:50:27 Visual Basic 6.0 0%
2009-10-22 23:50:27 Visual Basic V6.0 6.0 0%
2009-10-22 23:50:27 Visual C# Express 0%
2009-10-22 23:50:27 Visual C++ 2008 0%
2009-10-22 23:50:27 Visual Cafe 4.5.2 0%
2009-10-22 23:50:27 Visual Day Planer 7.3 0%
2009-10-22 23:50:27 Visual Day Planner V6.0 32-bit 0%
2009-10-22 23:50:27 Visual ENote 1.59.850 0%
2009-10-22 23:50:27 Visual Fox Pro Key By Swawel 0%
2009-10-22 23:50:27 Visual FoxPro 7.0 60%